Home   Weather   Greeley   Past weeks

Flag for USA Past Weather in Greeley, Colorado, USA — Yesterday and Last 2 Weeks

Now
49 °F

Sunny.


Feels Like: 41 °F
Forecast: 20 / 46 °F
Wind: 24 mph from Northwest

Location: Greeley / Weld

Current Time: Dec 5, 2016 at 1:41:34 pm

Latest Report: Dec 5, 2016 at 11:56 am


Visibility: 10 mi

Pressure: 29.67 "Hg (24.97 "Hg at 1424m altitude)

Humidity: 29%

Dew Point: 18 °F

Location of GreeleyLocation

Past Weather in Greeley — Graph

°F

Greeley Temperature Yesterday

Maximum temperature yesterday: 42 °F (at 12:56 pm)
Minimum temperature yesterday: 7 °F (at 5:56 am)
Average temperature yesterday: 26 °F

High & Low Weather Summary for the Past Weeks

 TemperatureHumidityPressure
High64 °F (Nov 21, 1:35 pm)93% (Nov 23, 12:55 am)30.42 "Hg (Nov 23, 12:55 am)
Low7 °F (Dec 4, 5:56 am)13% (Nov 26, 3:15 pm)29.32 "Hg (Nov 27, 1:55 pm)
Average33 °F59%29.99 "Hg
* Reported Nov 20 11:15 am — Dec 5 11:56 am, Greeley, Weather by CustomWeather, © 2016

Note: Actual official high and low records may vary slightly from our data, if they occured in-between our weather recording intervals... More about our weather records

Advertising

Greeley Weather History for the Previous 24 Hours

Scroll right to see more
 ConditionsComfort  
Time TempWeatherWind HumidityBarometerVisibility
11:56 am
Mon, Dec 5
49 °FSunny.24 mph29%29.67 "Hg10 mi
10:56 am52 °FSunny.23 mph30%29.66 "Hg10 mi
9:56 am53 °FSunny.23 mph28%29.63 "Hg10 mi
8:56 am49 °FSunny.21 mph36%29.62 "Hg10 mi
7:56 am43 °FSunny.17 mph45%29.62 "Hg10 mi
6:56 am23 °FClear.6 mph72%29.70 "Hg10 mi
5:56 am23 °FClear.6 mph68%29.71 "Hg10 mi
4:56 am23 °FClear.6 mph68%29.70 "Hg10 mi
3:56 am25 °FClear.5 mph63%29.68 "Hg10 mi
2:56 am22 °FClear.9 mph68%29.70 "Hg10 mi
1:56 am24 °FClear.3 mph65%29.72 "Hg10 mi
12:56 am24 °FClear.5 mph65%29.73 "Hg10 mi
11:56 pm
Sun, Dec 4
25 °FClear.7 mph66%29.76 "Hg10 mi
10:56 pm27 °FClear.No wind61%29.80 "Hg10 mi
9:56 pm30 °FClear.5 mph56%29.80 "Hg10 mi
8:56 pm31 °FClear.8 mph54%29.86 "Hg10 mi
7:56 pm34 °FClear.7 mph48%29.88 "Hg10 mi
6:56 pm33 °FClear.5 mph45%29.94 "Hg10 mi
5:56 pm28 °FClear.6 mph56%29.95 "Hg10 mi
4:56 pm33 °FClear.No wind45%29.94 "Hg10 mi
3:56 pm38 °FSunny.5 mph36%29.93 "Hg10 mi
2:56 pm40 °FSunny.No wind35%29.95 "Hg10 mi
1:56 pm42 °FSunny.3 mph30%29.97 "Hg10 mi
Weather by CustomWeather, © 2016

See weather overviewHow to use our weather pages